Home   Weather   Ufa   Past weeks

Flag for Russia Past Weather in Ufa, Russia — Yesterday and Last 2 Weeks

Now
66 °F

Passing clouds.


Feels Like: 66 °F
Forecast: 57 / 63 °F
Wind: 13 mph from South

Location: Ufa

Current Time: Sep 1, 2016 at 10:37:42 AM

Latest Report: Sep 1, 2016 at 10:00 AM


Visibility: N/A

Pressure: 29.83 "Hg

Humidity: 28%

Dew Point: 32 °F

Location of UfaLocation

Past Weather in Ufa — Graph

°F

Ufa Temperature Yesterday

Maximum temperature yesterday: 79 °F (at 2:30 PM)
Minimum temperature yesterday: 57 °F (at 1:30 AM)
Average temperature yesterday: 67 °F

High & Low Weather Summary for the Past Weeks

 TemperatureHumidityPressure
High95 °F (Aug 17, 4:00 PM)94% (Aug 24, 6:00 AM)30.33 "Hg (Aug 24, 6:00 AM)
Low36 °F (Aug 30, 5:30 AM)17% (Aug 31, 3:00 PM)29.65 "Hg (Aug 28, 10:30 PM)
Average72 °F52%30.10 "Hg
* Reported Aug 17 9:00 AM — Sep 1 9:30 AM, Ufa, Weather by CustomWeather, © 2016

Note: Actual official high and low records may vary slightly from our data, if they occured in-between our weather recording intervals... More about our weather records

Advertising

Ufa Weather History for the Previous 24 Hours

Scroll right to see more
 ConditionsComfort  
Time TempWeatherWind HumidityBarometerVisibility
9:30 AM
Thu, Sep 1
64 °FPassing clouds.13 mph28%29.83 "HgN/A
9:00 AM63 °FPassing clouds.10 mph30%29.86 "HgN/A
8:30 AM59 °FSunny.8 mph34%29.86 "Hg10 mi
8:00 AM57 °FSunny.8 mph36%29.86 "Hg10 mi
7:30 AM57 °FPassing clouds.8 mph36%29.86 "HgN/A
7:00 AM55 °FClear.8 mph38%29.86 "Hg10 mi
6:30 AM55 °FClear.6 mph36%29.86 "Hg10 mi
6:00 AM57 °FClear.8 mph33%29.86 "Hg10 mi
5:30 AM57 °FClear.8 mph33%29.86 "Hg10 mi
5:00 AM57 °FClear.8 mph33%29.89 "Hg10 mi
4:30 AM57 °FPassing clouds.3 mph36%29.89 "HgN/A
4:00 AM59 °FPassing clouds.6 mph31%29.89 "HgN/A
3:30 AM59 °FPassing clouds.6 mph31%29.89 "HgN/A
3:00 AM59 °FPassing clouds.6 mph31%29.89 "HgN/A
2:30 AM61 °FPassing clouds.6 mph29%29.89 "HgN/A
2:00 AM61 °FPassing clouds.8 mph29%29.89 "HgN/A
1:30 AM61 °FPassing clouds.8 mph29%29.89 "HgN/A
1:00 AM61 °FPassing clouds.8 mph29%29.92 "HgN/A
12:30 AM61 °FPassing clouds.6 mph29%29.92 "HgN/A
12:00 AM63 °FClear.8 mph27%29.92 "Hg10 mi
11:30 PM
Wed, Aug 31
64 °FClear.8 mph26%29.92 "Hg10 mi
11:00 PM64 °FClear.6 mph26%29.92 "Hg10 mi
10:30 PM64 °FPassing clouds.6 mph28%29.95 "HgN/A
10:00 PM66 °FPassing clouds.6 mph26%29.95 "HgN/A
9:30 PM66 °FClear.6 mph28%29.95 "Hg10 mi
9:00 PM68 °FSunny.6 mph26%29.92 "Hg10 mi
8:30 PM72 °FSunny.8 mph22%29.92 "Hg10 mi
8:00 PM73 °FPassing clouds.6 mph20%29.92 "HgN/A
7:30 PM75 °FPassing clouds.8 mph19%29.92 "HgN/A
7:00 PM77 °FPassing clouds.13 mph18%29.92 "HgN/A
6:30 PM79 °FSunny.17 mph17%29.95 "Hg10 mi
6:00 PM79 °FPassing clouds.17 mph17%29.95 "HgN/A
5:30 PM79 °FPassing clouds.17 mph18%29.95 "HgN/A
5:00 PM79 °FSunny.17 mph18%29.95 "Hg10 mi
4:30 PM79 °FPassing clouds.20 mph17%29.95 "HgN/A
4:00 PM79 °FPassing clouds.20 mph18%29.98 "HgN/A
3:30 PM79 °FPassing clouds.15 mph18%29.98 "HgN/A
3:00 PM79 °FSunny.20 mph17%29.98 "Hg10 mi
2:30 PM79 °FPassing clouds.17 mph18%30.01 "HgN/A
2:00 PM77 °FSunny.22 mph19%30.01 "Hg10 mi
1:30 PM77 °FSunny.17 mph21%30.01 "Hg10 mi
1:00 PM75 °FSunny.20 mph22%30.01 "Hg10 mi
12:30 PM73 °FSunny.20 mph22%30.01 "Hg10 mi
12:00 PM73 °FSunny.20 mph23%30.04 "Hg10 mi
11:30 AM72 °FSunny.17 mph25%30.04 "Hg10 mi
11:00 AM72 °FSunny.22 mph25%30.04 "Hg10 mi
10:30 AM68 °FSunny.17 mph30%30.04 "Hg10 mi
10:00 AM66 °FSunny.17 mph30%30.04 "Hg10 mi
Weather by CustomWeather, © 2016

See weather overviewHow to use our weather pages